This is the latest recevied weather packets stored in our database for station/object N9BID. If no packets are shown the sender has not sent any weather packets the latest 10 day(s).
| Time | Temp. | Humidity | Pressure | Rain* | Wind** | Luminosity | Snow |
|---|---|---|---|---|---|---|---|
| 1777479016 | 4.44° C | 98% | 1008.8 hPa | 0 mm | - | 166 W/m² | - |
| 1777478713 | 4.44° C | 98% | 1008.9 hPa | 0 mm | - | 154 W/m² | - |
| 1777478409 | 4.44° C | 98% | 1008.8 hPa | 0 mm | - | 162 W/m² | - |
| 1777478106 | 4.44° C | 98% | 1009.1 hPa | 1.78 mm | - | 176 W/m² | - |
| 1777477802 | 5° C | 98% | 1008.6 hPa | 1.78 mm | - | 140 W/m² | - |
| 1777477498 | 4.44° C | 98% | 1008.7 hPa | 0 mm | - | 127 W/m² | - |
| 1777477195 | 4.44° C | 98% | 1008.7 hPa | 0 mm | - | 215 W/m² | - |
| 1777476891 | 4.44° C | 98% | 1009 hPa | 0 mm | - | 242 W/m² | - |
| 1777476589 | 4.44° C | 99% | 1008.8 hPa | 0 mm | - | 250 W/m² | - |
| 1777476285 | 3.89° C | 98% | 1008.9 hPa | 1.27 mm | - | 222 W/m² | - |
| 1777475980 | 4.44° C | 99% | 1008.8 hPa | 1.27 mm | - | 170 W/m² | - |
| 1777475677 | 4.44° C | 99% | 1008.8 hPa | 0 mm | - | 173 W/m² | - |
| 1777475373 | 3.89° C | 99% | 1008.6 hPa | 0 mm | - | 173 W/m² | - |
| 1777475068 | 3.89° C | 99% | 1008.5 hPa | 0 mm | - | 150 W/m² | - |
| 1777474766 | 3.89° C | 99% | 1008.3 hPa | 0 mm | - | 161 W/m² | - |
| 1777474462 | 3.89° C | 99% | 1008.8 hPa | 0 mm | - | 180 W/m² | - |
| 1777474158 | 4.44° C | 99% | 1008.3 hPa | 0 mm | - | 175 W/m² | - |
| 1777473856 | 4.44° C | 99% | 1008.6 hPa | 1.78 mm | - | 179 W/m² | - |
| 1777473553 | 4.44° C | 99% | 1008.5 hPa | 1.78 mm | - | 125 W/m² | - |
| 1777473249 | 3.89° C | 99% | 1008.6 hPa | 0 mm | - | 108 W/m² | - |
| 1777472945 | 3.89° C | 99% | 1008.6 hPa | 0 mm | - | 129 W/m² | - |
| 1777472641 | 3.89° C | 99% | 1008.5 hPa | 1.78 mm | - | 121 W/m² | - |
| 1777472338 | 3.89° C | 99% | 1008.3 hPa | 1.78 mm | - | 96 W/m² | - |
| 1777472036 | 3.89° C | 99% | 1008.3 hPa | 1.27 mm | - | 93 W/m² | - |
| 1777471736 | 3.89° C | 99% | 1008.5 hPa | 1.27 mm | - | 97 W/m² | - |
* Rain latest hour (hover to see other rain measurements)
** Current wind speed in m/s (hover to see current wind gust speed)